Year,Month,Day,Hour,Minute,Value (Times are PST for temperature in C)
2009,09,27,00,00,8.50
2009,09,27,00,01,8.40
2009,09,27,00,02,8.40
2009,09,27,00,03,8.40
2009,09,27,00,04,8.40
2009,09,27,00,05,8.30
2009,09,27,00,06,8.30
2009,09,27,00,07,8.30
2009,09,27,00,08,8.30
2009,09,27,00,09,8.20
2009,09,27,00,10,8.20
2009,09,27,00,11,8.20
2009,09,27,00,12,8.30
2009,09,27,00,13,8.30
2009,09,27,00,14,8.30
2009,09,27,00,15,8.30
2009,09,27,00,16,8.30
2009,09,27,00,17,8.30
2009,09,27,00,18,8.30
2009,09,27,00,19,8.30
2009,09,27,00,20,8.30
2009,09,27,00,21,8.30
2009,09,27,00,22,8.30
2009,09,27,00,23,8.30
2009,09,27,00,24,8.30
2009,09,27,00,25,8.30
2009,09,27,00,26,8.20
2009,09,27,00,27,8.20
2009,09,27,00,28,8.20
2009,09,27,00,29,8.20
2009,09,27,00,30,8.10
2009,09,27,00,31,8.10
2009,09,27,00,32,8.00
2009,09,27,00,33,8.00
2009,09,27,00,34,7.90
2009,09,27,00,35,7.90
2009,09,27,00,36,7.80
2009,09,27,00,37,7.80
2009,09,27,00,38,7.80
2009,09,27,00,39,7.80
2009,09,27,00,40,7.80
2009,09,27,00,41,7.80
2009,09,27,00,42,7.70
2009,09,27,00,43,7.70
2009,09,27,00,44,7.70
2009,09,27,00,45,7.70
2009,09,27,00,46,7.70
2009,09,27,00,47,7.60
2009,09,27,00,48,7.60
2009,09,27,00,49,7.60
2009,09,27,00,50,7.60
2009,09,27,00,51,7.60
2009,09,27,00,52,7.60
2009,09,27,00,53,7.60
2009,09,27,00,54,7.60
2009,09,27,00,55,7.60
2009,09,27,00,56,7.60
2009,09,27,00,57,7.60
2009,09,27,00,58,7.60
2009,09,27,00,59,7.50
2009,09,27,01,00,7.50
2009,09,27,01,01,7.50
2009,09,27,01,02,7.40
2009,09,27,01,03,7.40
2009,09,27,01,04,7.40
2009,09,27,01,05,7.40
2009,09,27,01,06,7.40
2009,09,27,01,07,7.30
2009,09,27,01,08,7.30
2009,09,27,01,09,7.30
2009,09,27,01,10,7.30
2009,09,27,01,11,7.20
2009,09,27,01,12,7.20
2009,09,27,01,13,7.20
2009,09,27,01,14,7.20
2009,09,27,01,15,7.20
2009,09,27,01,16,7.20
2009,09,27,01,17,7.20
2009,09,27,01,18,7.20
2009,09,27,01,19,7.20
2009,09,27,01,20,7.20
2009,09,27,01,21,7.20
2009,09,27,01,22,7.20
2009,09,27,01,23,7.20
2009,09,27,01,24,7.20
2009,09,27,01,25,7.20
2009,09,27,01,26,7.20
2009,09,27,01,27,7.20
2009,09,27,01,28,7.20
2009,09,27,01,29,7.20
2009,09,27,01,30,7.20
2009,09,27,01,31,7.20
2009,09,27,01,32,7.20
2009,09,27,01,33,7.20
2009,09,27,01,34,7.20
2009,09,27,01,35,7.20
2009,09,27,01,36,7.20
2009,09,27,01,37,7.10
2009,09,27,01,38,7.10
2009,09,27,01,39,7.10
2009,09,27,01,40,7.10
2009,09,27,01,41,7.00
2009,09,27,01,42,7.00
2009,09,27,01,43,7.00
2009,09,27,01,44,6.90
2009,09,27,01,45,6.90
2009,09,27,01,46,6.90
2009,09,27,01,47,6.90
2009,09,27,01,48,6.90
2009,09,27,01,49,6.90
2009,09,27,01,50,6.90
2009,09,27,01,51,6.90
2009,09,27,01,52,6.90
2009,09,27,01,53,6.90
2009,09,27,01,54,6.90
2009,09,27,01,55,6.80
2009,09,27,01,56,6.80
2009,09,27,01,57,6.80
2009,09,27,01,58,6.80
2009,09,27,01,59,6.80
2009,09,27,02,00,6.80
2009,09,27,02,01,6.80
2009,09,27,02,02,6.80
2009,09,27,02,03,6.80
2009,09,27,02,04,6.80
2009,09,27,02,05,6.70
2009,09,27,02,06,6.70
2009,09,27,02,07,6.70
2009,09,27,02,08,6.70
2009,09,27,02,09,6.70
2009,09,27,02,10,6.70
2009,09,27,02,11,6.70
2009,09,27,02,12,6.70
2009,09,27,02,13,6.70
2009,09,27,02,14,6.70
2009,09,27,02,15,6.70
2009,09,27,02,16,6.80
2009,09,27,02,17,6.80
2009,09,27,02,18,6.90
2009,09,27,02,19,6.90
2009,09,27,02,20,6.90
2009,09,27,02,21,6.90
2009,09,27,02,22,7.00
2009,09,27,02,23,7.00
2009,09,27,02,24,7.00
2009,09,27,02,25,7.00
2009,09,27,02,26,7.00
2009,09,27,02,27,6.90
2009,09,27,02,28,6.90
2009,09,27,02,29,6.80
2009,09,27,02,30,6.80
2009,09,27,02,31,6.70
2009,09,27,02,32,6.70
2009,09,27,02,33,6.70
2009,09,27,02,34,6.60
2009,09,27,02,35,6.50
2009,09,27,02,36,6.40
2009,09,27,02,37,6.40
2009,09,27,02,38,6.30
2009,09,27,02,39,6.30
2009,09,27,02,40,6.20
2009,09,27,02,41,6.20
2009,09,27,02,42,6.20
2009,09,27,02,43,6.10
2009,09,27,02,44,6.10
2009,09,27,02,45,6.10
2009,09,27,02,46,6.10
2009,09,27,02,47,6.00
2009,09,27,02,48,6.00
2009,09,27,02,49,6.00
2009,09,27,02,50,6.00
2009,09,27,02,51,6.10
2009,09,27,02,52,6.10
2009,09,27,02,53,6.10
2009,09,27,02,54,6.10
2009,09,27,02,55,6.20
2009,09,27,02,56,6.20
2009,09,27,02,57,6.30
2009,09,27,02,58,6.30
2009,09,27,02,59,6.30
2009,09,27,03,00,6.30
2009,09,27,03,01,6.40
2009,09,27,03,02,6.30
2009,09,27,03,03,6.30
2009,09,27,03,04,6.30
2009,09,27,03,05,6.30
2009,09,27,03,06,6.20
2009,09,27,03,07,6.20
2009,09,27,03,08,6.20
2009,09,27,03,09,6.10
2009,09,27,03,10,6.10
2009,09,27,03,11,6.10
2009,09,27,03,12,6.10
2009,09,27,03,13,6.00
2009,09,27,03,14,6.00
2009,09,27,03,15,6.00
2009,09,27,03,16,6.00
2009,09,27,03,17,5.90
2009,09,27,03,18,5.90
2009,09,27,03,19,5.90
2009,09,27,03,20,5.90
2009,09,27,03,21,5.90
2009,09,27,03,22,5.90
2009,09,27,03,23,5.90
2009,09,27,03,24,5.90
2009,09,27,03,25,5.80
2009,09,27,03,26,5.80
2009,09,27,03,27,5.80
2009,09,27,03,28,5.80
2009,09,27,03,29,5.80
2009,09,27,03,30,5.80
2009,09,27,03,31,5.80
2009,09,27,03,32,5.80
2009,09,27,03,33,5.80
2009,09,27,03,34,5.80
2009,09,27,03,35,5.80
2009,09,27,03,36,5.80
2009,09,27,03,37,5.80
2009,09,27,03,38,5.80
2009,09,27,03,39,5.80
2009,09,27,03,40,5.80
2009,09,27,03,41,5.80
2009,09,27,03,42,5.70
2009,09,27,03,43,5.70
2009,09,27,03,44,5.70
2009,09,27,03,45,5.60
2009,09,27,03,46,5.60
2009,09,27,03,47,5.60
2009,09,27,03,48,5.50
2009,09,27,03,49,5.50
2009,09,27,03,50,5.40
2009,09,27,03,51,5.40
2009,09,27,03,52,5.40
2009,09,27,03,53,5.40
2009,09,27,03,54,5.30
2009,09,27,03,55,5.30
2009,09,27,03,56,5.30
2009,09,27,03,57,5.30
2009,09,27,03,58,5.30
2009,09,27,03,59,5.30
2009,09,27,04,00,5.30
2009,09,27,04,01,5.40
2009,09,27,04,02,5.40
2009,09,27,04,03,5.50
2009,09,27,04,04,5.60
2009,09,27,04,05,5.70
2009,09,27,04,06,5.70
2009,09,27,04,07,5.70
2009,09,27,04,08,5.70
2009,09,27,04,09,5.70
2009,09,27,04,10,5.70
2009,09,27,04,11,5.70
2009,09,27,04,12,5.60
2009,09,27,04,13,5.50
2009,09,27,04,14,5.40
2009,09,27,04,15,5.40
2009,09,27,04,16,5.30
2009,09,27,04,17,5.30
2009,09,27,04,18,5.30
2009,09,27,04,19,5.30
2009,09,27,04,20,5.30
2009,09,27,04,21,5.30
2009,09,27,04,22,5.20
2009,09,27,04,23,5.20
2009,09,27,04,24,5.20
2009,09,27,04,25,5.10
2009,09,27,04,26,5.10
2009,09,27,04,27,5.10
2009,09,27,04,28,5.10
2009,09,27,04,29,5.00
2009,09,27,04,30,5.00
2009,09,27,04,31,5.00
2009,09,27,04,32,5.10
2009,09,27,04,33,5.10
2009,09,27,04,34,5.10
2009,09,27,04,35,5.10
2009,09,27,04,36,5.10
2009,09,27,04,37,5.10
2009,09,27,04,38,5.10
2009,09,27,04,39,5.00
2009,09,27,04,40,5.00
2009,09,27,04,41,5.00
2009,09,27,04,42,4.90
2009,09,27,04,43,4.90
2009,09,27,04,44,4.90
2009,09,27,04,45,4.90
2009,09,27,04,46,4.90
2009,09,27,04,47,4.90
2009,09,27,04,48,4.90
2009,09,27,04,49,4.90
2009,09,27,04,50,5.00
2009,09,27,04,51,5.00
2009,09,27,04,52,5.00
2009,09,27,04,53,5.10
2009,09,27,04,54,5.10
2009,09,27,04,55,5.10
2009,09,27,04,56,5.10
2009,09,27,04,57,5.10
2009,09,27,04,58,5.10
2009,09,27,04,59,5.10
2009,09,27,05,00,5.10
2009,09,27,05,01,5.10
2009,09,27,05,02,5.10
2009,09,27,05,03,5.10
2009,09,27,05,04,5.00
2009,09,27,05,05,5.00
2009,09,27,05,06,5.00
2009,09,27,05,07,4.90
2009,09,27,05,08,4.90
2009,09,27,05,09,4.90
2009,09,27,05,10,4.90
2009,09,27,05,11,4.90
2009,09,27,05,12,4.90
2009,09,27,05,13,4.90
2009,09,27,05,14,4.90
2009,09,27,05,15,4.90
2009,09,27,05,16,4.90
2009,09,27,05,17,5.00
2009,09,27,05,18,5.00
2009,09,27,05,19,5.00
2009,09,27,05,20,4.90
2009,09,27,05,21,4.90
2009,09,27,05,22,4.90
2009,09,27,05,23,4.90
2009,09,27,05,24,4.90
2009,09,27,05,25,4.90
2009,09,27,05,26,4.90
2009,09,27,05,27,4.90
2009,09,27,05,28,5.00
2009,09,27,05,29,5.00
2009,09,27,05,30,4.90
2009,09,27,05,31,4.90
2009,09,27,05,32,4.90
2009,09,27,05,33,4.90
2009,09,27,05,34,4.90
2009,09,27,05,35,4.80
2009,09,27,05,36,4.70
2009,09,27,05,37,4.70
2009,09,27,05,38,4.70
2009,09,27,05,39,4.80
2009,09,27,05,40,4.80
2009,09,27,05,41,4.80
2009,09,27,05,42,4.80
2009,09,27,05,43,4.80
2009,09,27,05,44,4.80
2009,09,27,05,45,4.70
2009,09,27,05,46,4.70
2009,09,27,05,47,4.70
2009,09,27,05,48,4.70
2009,09,27,05,49,4.70
2009,09,27,05,50,4.70
2009,09,27,05,51,4.70
2009,09,27,05,52,4.80
2009,09,27,05,53,4.80
2009,09,27,05,54,4.80
2009,09,27,05,55,4.80
2009,09,27,05,56,4.80
2009,09,27,05,57,4.80
2009,09,27,05,58,4.80
2009,09,27,05,59,4.90
2009,09,27,06,00,4.90
2009,09,27,06,01,4.90
2009,09,27,06,02,4.90
2009,09,27,06,03,4.90
2009,09,27,06,04,4.90
2009,09,27,06,05,4.90
2009,09,27,06,06,4.90
2009,09,27,06,07,4.80
2009,09,27,06,08,4.80
2009,09,27,06,09,4.80
2009,09,27,06,10,4.80
2009,09,27,06,11,4.80
2009,09,27,06,12,4.90
2009,09,27,06,13,4.90
2009,09,27,06,14,4.90
2009,09,27,06,15,5.00
2009,09,27,06,16,5.10
2009,09,27,06,17,5.10
2009,09,27,06,18,5.20
2009,09,27,06,19,5.30
2009,09,27,06,20,5.50
2009,09,27,06,21,5.60
2009,09,27,06,22,5.60
2009,09,27,06,23,5.70
2009,09,27,06,24,5.80
2009,09,27,06,25,5.80
2009,09,27,06,26,5.80
2009,09,27,06,27,5.70
2009,09,27,06,28,5.70
2009,09,27,06,29,5.70
2009,09,27,06,30,5.60
2009,09,27,06,31,5.60
2009,09,27,06,32,5.50
2009,09,27,06,33,5.50
2009,09,27,06,34,5.40
2009,09,27,06,35,5.40
2009,09,27,06,36,5.30
2009,09,27,06,37,5.30
2009,09,27,06,38,5.20
2009,09,27,06,39,5.20
2009,09,27,06,40,5.10
2009,09,27,06,41,5.10
2009,09,27,06,42,5.00
2009,09,27,06,43,5.00
2009,09,27,06,44,5.00
2009,09,27,06,45,5.00
2009,09,27,06,46,5.10
2009,09,27,06,47,5.20
2009,09,27,06,48,5.30
2009,09,27,06,49,5.30
2009,09,27,06,50,5.30
2009,09,27,06,51,5.30
2009,09,27,06,52,5.40
2009,09,27,06,53,5.40
2009,09,27,06,54,5.50
2009,09,27,06,55,5.50
2009,09,27,06,56,5.50
2009,09,27,06,57,5.60
2009,09,27,06,58,5.70
2009,09,27,06,59,5.80
2009,09,27,07,00,5.80
2009,09,27,07,01,5.90
2009,09,27,07,02,6.00
2009,09,27,07,03,6.00
2009,09,27,07,04,6.10
2009,09,27,07,05,6.10
2009,09,27,07,06,6.20
2009,09,27,07,07,6.30
2009,09,27,07,08,6.40
2009,09,27,07,09,6.40
2009,09,27,07,10,6.50
2009,09,27,07,11,6.60
2009,09,27,07,12,6.60
2009,09,27,07,13,6.60
2009,09,27,07,14,6.70
2009,09,27,07,15,6.70
2009,09,27,07,16,6.70
2009,09,27,07,17,6.80
2009,09,27,07,18,6.80
2009,09,27,07,19,6.80
2009,09,27,07,20,6.90
2009,09,27,07,21,6.90
2009,09,27,07,22,6.90
2009,09,27,07,23,6.90
2009,09,27,07,24,6.90
2009,09,27,07,25,6.80
2009,09,27,07,26,6.80
2009,09,27,07,27,6.80
2009,09,27,07,28,6.80
2009,09,27,07,29,6.90
2009,09,27,07,30,7.00
2009,09,27,07,31,7.00
2009,09,27,07,32,7.10
2009,09,27,07,33,7.10
2009,09,27,07,34,7.00
2009,09,27,07,35,7.00
2009,09,27,07,36,7.00
2009,09,27,07,37,7.00
2009,09,27,07,38,7.10
2009,09,27,07,39,7.10
2009,09,27,07,40,7.20
2009,09,27,07,41,7.30
2009,09,27,07,42,7.40
2009,09,27,07,43,7.60
2009,09,27,07,44,7.60
2009,09,27,07,45,7.70
2009,09,27,07,46,7.80
2009,09,27,07,47,7.90
2009,09,27,07,48,8.00
2009,09,27,07,49,8.10
2009,09,27,07,50,8.20
2009,09,27,07,51,8.30
2009,09,27,07,52,8.40
2009,09,27,07,53,8.50
2009,09,27,07,54,8.60
2009,09,27,07,55,8.70
2009,09,27,07,56,8.70
2009,09,27,07,57,8.80
2009,09,27,07,58,8.90
2009,09,27,07,59,9.00
2009,09,27,08,00,9.10
2009,09,27,08,01,9.10
2009,09,27,08,02,9.20
2009,09,27,08,03,9.20
2009,09,27,08,04,9.30
2009,09,27,08,05,9.40
2009,09,27,08,06,9.50
2009,09,27,08,07,9.50
2009,09,27,08,08,9.60
2009,09,27,08,09,9.70
2009,09,27,08,10,9.70
2009,09,27,08,11,9.80
2009,09,27,08,12,9.90
2009,09,27,08,13,9.90
2009,09,27,08,14,10.00
2009,09,27,08,15,10.10
2009,09,27,08,16,10.20
2009,09,27,08,17,10.30
2009,09,27,08,18,10.30
2009,09,27,08,19,10.30
2009,09,27,08,20,10.30
2009,09,27,08,21,10.40
2009,09,27,08,22,10.40
2009,09,27,08,23,10.40
2009,09,27,08,24,10.50
2009,09,27,08,25,10.60
2009,09,27,08,26,10.60
2009,09,27,08,27,10.70
2009,09,27,08,28,10.70
2009,09,27,08,29,10.80
2009,09,27,08,30,10.90
2009,09,27,08,31,10.90
2009,09,27,08,32,11.00
2009,09,27,08,33,11.10
2009,09,27,08,34,11.20
2009,09,27,08,35,11.20
2009,09,27,08,36,11.30
2009,09,27,08,37,11.30
2009,09,27,08,38,11.30
2009,09,27,08,39,11.40
2009,09,27,08,40,11.40
2009,09,27,08,41,11.40
2009,09,27,08,42,11.50
2009,09,27,08,43,11.60
2009,09,27,08,44,11.60
2009,09,27,08,45,11.70
2009,09,27,08,46,11.70
2009,09,27,08,47,11.80
2009,09,27,08,48,11.80
2009,09,27,08,49,11.80
2009,09,27,08,50,11.90
2009,09,27,08,51,11.90
2009,09,27,08,52,12.00
2009,09,27,08,53,12.00
2009,09,27,08,54,12.10
2009,09,27,08,55,12.10
2009,09,27,08,56,12.10
2009,09,27,08,57,12.10
2009,09,27,08,58,12.10
2009,09,27,08,59,12.10
2009,09,27,09,00,12.10
2009,09,27,09,01,12.10
2009,09,27,09,02,12.20
2009,09,27,09,03,12.20
2009,09,27,09,04,12.20
2009,09,27,09,05,12.20
2009,09,27,09,06,12.30
2009,09,27,09,07,12.30
2009,09,27,09,08,12.30
2009,09,27,09,09,12.30
2009,09,27,09,10,12.30
2009,09,27,09,11,12.30
2009,09,27,09,12,12.30
2009,09,27,09,13,12.40
2009,09,27,09,14,12.40
2009,09,27,09,15,12.40
2009,09,27,09,16,12.40
2009,09,27,09,17,12.40
2009,09,27,09,18,12.50
2009,09,27,09,19,12.60
2009,09,27,09,20,12.70
2009,09,27,09,21,12.70
2009,09,27,09,22,12.80
2009,09,27,09,23,12.80
2009,09,27,09,24,12.90
2009,09,27,09,25,12.90
2009,09,27,09,26,12.90
2009,09,27,09,27,12.80
2009,09,27,09,28,12.80
2009,09,27,09,29,12.80
2009,09,27,09,30,12.80
2009,09,27,09,31,12.80
2009,09,27,09,32,12.90
2009,09,27,09,33,12.90
2009,09,27,09,34,12.90
2009,09,27,09,35,13.00
2009,09,27,09,36,13.10
2009,09,27,09,37,13.10
2009,09,27,09,38,13.10
2009,09,27,09,39,13.10
2009,09,27,09,40,13.10
2009,09,27,09,41,13.10
2009,09,27,09,42,13.10
2009,09,27,09,43,13.20
2009,09,27,09,44,13.20
2009,09,27,09,45,13.30
2009,09,27,09,46,13.30
2009,09,27,09,47,13.40
2009,09,27,09,48,13.40
2009,09,27,09,49,13.40
2009,09,27,09,50,13.40
2009,09,27,09,51,13.40
2009,09,27,09,52,13.40
2009,09,27,09,53,13.40
2009,09,27,09,54,13.50
2009,09,27,09,55,13.50
2009,09,27,09,56,13.60
2009,09,27,09,57,13.60
2009,09,27,09,58,13.60
2009,09,27,09,59,13.70
2009,09,27,10,00,13.70
2009,09,27,10,01,13.70
2009,09,27,10,02,13.70
2009,09,27,10,03,13.70
2009,09,27,10,04,13.60
2009,09,27,10,05,13.60
2009,09,27,10,06,13.70
2009,09,27,10,07,13.70
2009,09,27,10,08,13.70
2009,09,27,10,09,13.80
2009,09,27,10,10,13.80
2009,09,27,10,11,13.80
2009,09,27,10,12,13.80
2009,09,27,10,13,13.80
2009,09,27,10,14,13.80
2009,09,27,10,15,13.80
2009,09,27,10,16,13.80
2009,09,27,10,17,13.80
2009,09,27,10,18,13.90
2009,09,27,10,19,13.90
2009,09,27,10,20,14.00
2009,09,27,10,21,14.00
2009,09,27,10,22,14.00
2009,09,27,10,23,14.10
2009,09,27,10,24,14.10
2009,09,27,10,25,14.10
2009,09,27,10,26,14.10
2009,09,27,10,27,14.10
2009,09,27,10,28,14.10
2009,09,27,10,29,14.10
2009,09,27,10,30,14.10
2009,09,27,10,31,14.10
2009,09,27,10,32,14.10
2009,09,27,10,33,14.10
2009,09,27,10,34,14.10
2009,09,27,10,35,14.20
2009,09,27,10,36,14.20
2009,09,27,10,37,14.20
2009,09,27,10,38,14.30
2009,09,27,10,39,14.20
2009,09,27,10,40,14.20
2009,09,27,10,41,14.20
2009,09,27,10,42,14.20
2009,09,27,10,43,14.20
2009,09,27,10,44,14.20
2009,09,27,10,45,14.30
2009,09,27,10,46,14.30
2009,09,27,10,47,14.20
2009,09,27,10,48,14.30
2009,09,27,10,49,14.30
2009,09,27,10,50,14.30
2009,09,27,10,51,14.30
2009,09,27,10,52,14.40
2009,09,27,10,53,14.40
2009,09,27,10,54,14.50
2009,09,27,10,55,14.50
2009,09,27,10,56,14.60
2009,09,27,10,57,14.60
2009,09,27,10,58,14.60
2009,09,27,10,59,14.70
2009,09,27,11,00,14.70
2009,09,27,11,01,14.80
2009,09,27,11,02,14.80
2009,09,27,11,03,14.80
2009,09,27,11,04,14.80
2009,09,27,11,05,14.80
2009,09,27,11,06,14.80
2009,09,27,11,07,14.90
2009,09,27,11,08,15.00
2009,09,27,11,09,15.00
2009,09,27,11,10,15.00
2009,09,27,11,11,15.00
2009,09,27,11,12,15.00
2009,09,27,11,13,15.00
2009,09,27,11,14,15.00
2009,09,27,11,15,15.00
2009,09,27,11,16,15.00
2009,09,27,11,17,15.00
2009,09,27,11,18,15.00
2009,09,27,11,19,15.00
2009,09,27,11,20,15.00
2009,09,27,11,21,15.00
2009,09,27,11,22,15.00
2009,09,27,11,23,15.00
2009,09,27,11,24,15.00
2009,09,27,11,25,15.00
2009,09,27,11,26,15.00
2009,09,27,11,27,15.00
2009,09,27,11,28,15.00
2009,09,27,11,29,15.00
2009,09,27,11,30,15.00
2009,09,27,11,31,15.00
2009,09,27,11,32,15.10
2009,09,27,11,33,15.20
2009,09,27,11,34,15.20
2009,09,27,11,35,15.30
2009,09,27,11,36,15.30
2009,09,27,11,37,15.40
2009,09,27,11,38,15.50
2009,09,27,11,39,15.60
2009,09,27,11,40,15.70
2009,09,27,11,41,15.70
2009,09,27,11,42,15.60
2009,09,27,11,43,15.50
2009,09,27,11,44,15.50
2009,09,27,11,45,15.50
2009,09,27,11,46,15.50
2009,09,27,11,47,15.50
2009,09,27,11,48,15.60
2009,09,27,11,49,15.60
2009,09,27,11,50,15.60
2009,09,27,11,51,15.60
2009,09,27,11,52,15.60
2009,09,27,11,53,15.60
2009,09,27,11,54,15.60
2009,09,27,11,55,15.60
2009,09,27,11,56,15.60
2009,09,27,11,57,15.60
2009,09,27,11,58,15.60
2009,09,27,11,59,15.60
2009,09,27,12,00,15.70
2009,09,27,12,01,15.80
2009,09,27,12,02,15.90
2009,09,27,12,03,15.90
2009,09,27,12,04,16.00
2009,09,27,12,05,16.00
2009,09,27,12,06,15.90
2009,09,27,12,07,15.90
2009,09,27,12,08,15.90
2009,09,27,12,09,16.00
2009,09,27,12,10,16.00
2009,09,27,12,11,16.00
2009,09,27,12,12,16.00
2009,09,27,12,13,16.00
2009,09,27,12,14,16.00
2009,09,27,12,15,16.10
2009,09,27,12,16,16.10
2009,09,27,12,17,16.20
2009,09,27,12,18,16.20
2009,09,27,12,19,16.30
2009,09,27,12,20,16.30
2009,09,27,12,21,16.30
2009,09,27,12,22,16.30
2009,09,27,12,23,16.30
2009,09,27,12,24,16.20
2009,09,27,12,25,16.20
2009,09,27,12,26,16.20
2009,09,27,12,27,16.20
2009,09,27,12,28,16.30
2009,09,27,12,29,16.40
2009,09,27,12,30,16.50
2009,09,27,12,31,16.60
2009,09,27,12,32,16.70
2009,09,27,12,33,16.70
2009,09,27,12,34,16.80
2009,09,27,12,35,16.80
2009,09,27,12,36,16.80
2009,09,27,12,37,16.80
2009,09,27,12,38,16.80
2009,09,27,12,39,16.80
2009,09,27,12,40,16.80
2009,09,27,12,41,16.80
2009,09,27,12,42,16.90
2009,09,27,12,43,16.90
2009,09,27,12,44,16.90
2009,09,27,12,45,17.00
2009,09,27,12,46,17.00
2009,09,27,12,47,16.90
2009,09,27,12,48,16.80
2009,09,27,12,49,16.70
2009,09,27,12,50,16.70
2009,09,27,12,51,16.60
2009,09,27,12,52,16.50
2009,09,27,12,53,16.40
2009,09,27,12,54,16.30
2009,09,27,12,55,16.30
2009,09,27,12,56,16.30
2009,09,27,12,57,16.30
2009,09,27,12,58,16.30
2009,09,27,12,59,16.30
2009,09,27,13,00,16.40
2009,09,27,13,01,16.40
2009,09,27,13,02,16.50
2009,09,27,13,03,16.50
2009,09,27,13,04,16.50
2009,09,27,13,05,16.40
2009,09,27,13,06,16.40
2009,09,27,13,07,16.40
2009,09,27,13,08,16.50
2009,09,27,13,09,16.50
2009,09,27,13,10,16.60
2009,09,27,13,11,16.60
2009,09,27,13,12,16.50
2009,09,27,13,13,16.50
2009,09,27,13,14,16.40
2009,09,27,13,15,16.40
2009,09,27,13,16,16.40
2009,09,27,13,17,16.40
2009,09,27,13,18,16.40
2009,09,27,13,19,16.40
2009,09,27,13,20,16.40
2009,09,27,13,21,16.50
2009,09,27,13,22,16.50
2009,09,27,13,23,16.60
2009,09,27,13,24,16.80
2009,09,27,13,25,16.80
2009,09,27,13,26,16.80
2009,09,27,13,27,16.80
2009,09,27,13,28,16.80
2009,09,27,13,29,16.80
2009,09,27,13,30,16.80
2009,09,27,13,31,16.70
2009,09,27,13,32,16.80
2009,09,27,13,33,16.80
2009,09,27,13,34,16.80
2009,09,27,13,35,16.80
2009,09,27,13,36,16.80
2009,09,27,13,37,16.80
2009,09,27,13,38,16.80
2009,09,27,13,39,16.80
2009,09,27,13,40,16.80
2009,09,27,13,41,16.80
2009,09,27,13,42,16.80
2009,09,27,13,43,16.80
2009,09,27,13,44,16.80
2009,09,27,13,45,16.80
2009,09,27,13,46,16.80
2009,09,27,13,47,16.70
2009,09,27,13,48,16.80
2009,09,27,13,49,16.80
2009,09,27,13,50,16.80
2009,09,27,13,51,16.80
2009,09,27,13,52,16.80
2009,09,27,13,53,16.80
2009,09,27,13,54,16.80
2009,09,27,13,55,16.80
2009,09,27,13,56,16.80
2009,09,27,13,57,16.80
2009,09,27,13,58,16.80
2009,09,27,13,59,16.80
2009,09,27,14,00,16.80
2009,09,27,14,01,16.90
2009,09,27,14,02,16.90
2009,09,27,14,03,17.00
2009,09,27,14,04,17.00
2009,09,27,14,05,17.00
2009,09,27,14,06,17.00
2009,09,27,14,07,17.10
2009,09,27,14,08,17.10
2009,09,27,14,09,17.10
2009,09,27,14,10,17.20
2009,09,27,14,11,17.20
2009,09,27,14,12,17.30
2009,09,27,14,13,17.40
2009,09,27,14,14,17.40
2009,09,27,14,15,17.40
2009,09,27,14,16,17.40
2009,09,27,14,17,17.50
2009,09,27,14,18,17.60
2009,09,27,14,19,17.60
2009,09,27,14,20,17.60
2009,09,27,14,21,17.60
2009,09,27,14,22,17.50
2009,09,27,14,23,17.40
2009,09,27,14,24,17.40
2009,09,27,14,25,17.50
2009,09,27,14,26,17.50
2009,09,27,14,27,17.40
2009,09,27,14,28,17.50
2009,09,27,14,29,17.50
2009,09,27,14,30,17.50
2009,09,27,14,31,17.40
2009,09,27,14,32,17.50
2009,09,27,14,33,17.50
2009,09,27,14,34,17.60
2009,09,27,14,35,17.60
2009,09,27,14,36,17.70
2009,09,27,14,37,17.70
2009,09,27,14,38,17.70
2009,09,27,14,39,17.70
2009,09,27,14,40,17.70
2009,09,27,14,41,17.60
2009,09,27,14,42,17.50
2009,09,27,14,43,17.50
2009,09,27,14,44,17.60
2009,09,27,14,45,17.50
2009,09,27,14,46,17.50
2009,09,27,14,47,17.40
2009,09,27,14,48,17.40
2009,09,27,14,49,17.40
2009,09,27,14,50,17.50
2009,09,27,14,51,17.50
2009,09,27,14,52,17.60
2009,09,27,14,53,17.60
2009,09,27,14,54,17.60
2009,09,27,14,55,17.60
2009,09,27,14,56,17.50
2009,09,27,14,57,17.50
2009,09,27,14,58,17.40
2009,09,27,14,59,17.40
2009,09,27,15,00,17.40
2009,09,27,15,01,17.40
2009,09,27,15,02,17.40
2009,09,27,15,03,17.40
2009,09,27,15,04,17.40
2009,09,27,15,05,17.40
2009,09,27,15,06,17.40
2009,09,27,15,07,17.40
2009,09,27,15,08,17.50
2009,09,27,15,09,17.50
2009,09,27,15,10,17.40
2009,09,27,15,11,17.40
2009,09,27,15,12,17.40
2009,09,27,15,13,17.40
2009,09,27,15,14,17.40
2009,09,27,15,15,17.40
2009,09,27,15,16,17.30
2009,09,27,15,17,17.30
2009,09,27,15,18,17.30
2009,09,27,15,19,17.40
2009,09,27,15,20,17.40
2009,09,27,15,21,17.50
2009,09,27,15,22,17.50
2009,09,27,15,23,17.50
2009,09,27,15,24,17.50
2009,09,27,15,25,17.50
2009,09,27,15,26,17.50
2009,09,27,15,27,17.50
2009,09,27,15,28,17.60
2009,09,27,15,29,17.60
2009,09,27,15,30,17.70
2009,09,27,15,31,17.70
2009,09,27,15,32,17.70
2009,09,27,15,33,17.60
2009,09,27,15,34,17.60
2009,09,27,15,35,17.60
2009,09,27,15,36,17.70
2009,09,27,15,37,17.70
2009,09,27,15,38,17.70
2009,09,27,15,39,17.60
2009,09,27,15,40,17.60
2009,09,27,15,41,17.50
2009,09,27,15,42,17.50
2009,09,27,15,43,17.40
2009,09,27,15,44,17.40
2009,09,27,15,45,17.40
2009,09,27,15,46,17.40
2009,09,27,15,47,17.30
2009,09,27,15,48,17.40
2009,09,27,15,49,17.40
2009,09,27,15,50,17.40
2009,09,27,15,51,17.50
2009,09,27,15,52,17.50
2009,09,27,15,53,17.50
2009,09,27,15,54,17.50
2009,09,27,15,55,17.50
2009,09,27,15,56,17.60
2009,09,27,15,57,17.60
2009,09,27,15,58,17.50
2009,09,27,15,59,17.50
2009,09,27,16,00,17.60
2009,09,27,16,01,17.60
2009,09,27,16,02,17.60
2009,09,27,16,03,17.60
2009,09,27,16,04,17.50
2009,09,27,16,05,17.50
2009,09,27,16,06,17.60
2009,09,27,16,07,17.60
2009,09,27,16,08,17.70
2009,09,27,16,09,17.70
2009,09,27,16,10,17.70
2009,09,27,16,11,17.70
2009,09,27,16,12,17.70
2009,09,27,16,13,17.70
2009,09,27,16,14,17.70
2009,09,27,16,15,17.70
2009,09,27,16,16,17.70
2009,09,27,16,17,17.80
2009,09,27,16,18,17.80
2009,09,27,16,19,17.80
2009,09,27,16,20,17.80
2009,09,27,16,21,17.80
2009,09,27,16,22,17.70
2009,09,27,16,23,17.70
2009,09,27,16,24,17.70
2009,09,27,16,25,17.70
2009,09,27,16,26,17.70
2009,09,27,16,27,17.70
2009,09,27,16,28,17.70
2009,09,27,16,29,17.70
2009,09,27,16,30,17.80
2009,09,27,16,31,17.70
2009,09,27,16,32,17.70
2009,09,27,16,33,17.70
2009,09,27,16,34,17.80
2009,09,27,16,35,17.80
2009,09,27,16,36,17.80
2009,09,27,16,37,17.80
2009,09,27,16,38,17.80
2009,09,27,16,39,17.90
2009,09,27,16,40,17.90
2009,09,27,16,41,17.90
2009,09,27,16,42,17.90
2009,09,27,16,43,17.90
2009,09,27,16,44,17.90
2009,09,27,16,45,17.90
2009,09,27,16,46,18.00
2009,09,27,16,47,18.00
2009,09,27,16,48,18.00
2009,09,27,16,49,18.00
2009,09,27,16,50,18.10
2009,09,27,16,51,18.10
2009,09,27,16,52,18.00
2009,09,27,16,53,18.00
2009,09,27,16,54,18.10
2009,09,27,16,55,18.10
2009,09,27,16,56,18.10
2009,09,27,16,57,18.20
2009,09,27,16,58,18.20
2009,09,27,16,59,18.20
2009,09,27,17,00,18.20
2009,09,27,17,01,18.20
2009,09,27,17,02,18.20
2009,09,27,17,03,18.20
2009,09,27,17,04,18.20
2009,09,27,17,05,18.20
2009,09,27,17,06,18.10
2009,09,27,17,07,18.10
2009,09,27,17,08,18.00
2009,09,27,17,09,18.00
2009,09,27,17,10,18.00
2009,09,27,17,11,18.00
2009,09,27,17,12,18.10
2009,09,27,17,13,18.10
2009,09,27,17,14,18.10
2009,09,27,17,15,18.20
2009,09,27,17,16,18.20
2009,09,27,17,17,18.20
2009,09,27,17,18,18.20
2009,09,27,17,19,18.20
2009,09,27,17,20,18.20
2009,09,27,17,21,18.20
2009,09,27,17,22,18.20
2009,09,27,17,23,18.20
2009,09,27,17,24,18.20
2009,09,27,17,25,18.20
2009,09,27,17,26,18.20
2009,09,27,17,27,18.20
2009,09,27,17,28,18.20
2009,09,27,17,29,18.20
2009,09,27,17,30,18.20
2009,09,27,17,31,18.20
2009,09,27,17,32,18.20
2009,09,27,17,33,18.20
2009,09,27,17,34,18.30
2009,09,27,17,35,18.30
2009,09,27,17,36,18.30
2009,09,27,17,37,18.20
2009,09,27,17,38,18.20
2009,09,27,17,39,18.20
2009,09,27,17,40,18.20